Montpelier, VT

4:09 PM EST on November 15, 2019 (GMT -0500)
Knapp State

Weather History for KMPV - September, 2019

Change the Weather History Date:

Monday, September 23, 2019

  Actual Average Record
Temperature  
Mean Temperature 68 °F 54 °F  
Max Temperature 78 °F 66 °F 83 °F (1959)
Min Temperature 59 °F 43 °F 25 °F (1955)
Degree Days  
Heating Degree Days 0 11  
Month to date heating degree days 173 160  
Since 1 July heating degree days 241 268  
Cooling Degree Days 4 0  
Month to date cooling degree days 9 16  
Year to date cooling degree days 220 260  
Growing Degree Days 18 (Base 50)    
Moisture  
Dew Point 63 °F    
Average Humidity 78    
Maximum Humidity 100    
Minimum Humidity 60    
Precipitation  
Precipitation 1.16 in 0.12 in 1.33 in (2003)
Month to date precipitation 2.58 2.30  
Year to date precipitation 37.38 27.10  
Sea Level Pressure  
Sea Level Pressure 29.75 in    
Wind  
Wind Speed 7 mph ()    
Max Wind Speed 21 mph    
Max Gust Speed 28 mph    
Visibility 8.0 miles    
Events Rain , Thunderstorm    
T = Trace of Precipitation, MM = Missing Value Source: Averaged Metar Reports

Daily Weather History Graph

Daily Weather History Graph

Search for Another Location

Airport or City:

Astronomy

Sep. 23, 2019 Rise Set
Actual Time 6:38 AM EDT 6:46 PM EDT
Civil Twilight 6:09 AM EDT 7:15 PM EDT
Nautical Twilight 5:35 AM EDT 7:48 PM EDT
Astronomical Twilight 5:00 AM EDT 8:23 PM EDT
Moon 12:04 AM EDT (9/23) 3:50 PM EDT (9/23)
Length of Visible Light 13h 05m
Length of Day
12h 07m
Waning Crescent, 33% of the Moon is Illuminated
Sep 23
Waning Crescent
Sep 28
New
Oct 5
First Quarter
Oct 13
Full
Oct 21
Last Quarter

Hourly Weather History & Observations

Time (EDT) Temp. Dew Point Humidity Pressure Visibility Wind Dir Wind Speed Gust Speed Precip Events Conditions
12:51 AM 75.0 °F 62.1 °F 64% 29.89 in 10.0 mi Variable 5.8 mph - N/A   Clear
1:51 AM 75.9 °F 63.0 °F 64% 29.87 in 10.0 mi WSW 12.7 mph 23.0 mph N/A   Clear
2:51 AM 75.9 °F 63.0 °F 64% 29.85 in 10.0 mi WSW 9.2 mph 23.0 mph N/A   Clear
3:51 AM 75.9 °F 62.1 °F 62% 29.84 in 10.0 mi SW 15.0 mph 25.3 mph N/A   Clear
4:51 AM 75.9 °F 62.1 °F 62% 29.82 in 10.0 mi WSW 10.4 mph 20.7 mph N/A   Clear
5:51 AM 75.0 °F 62.1 °F 64% 29.81 in 10.0 mi WSW 9.2 mph 18.4 mph N/A   Clear
6:51 AM 73.9 °F 62.1 °F 66% 29.81 in 10.0 mi WSW 8.1 mph - N/A   Partly Cloudy
7:51 AM 73.9 °F 62.1 °F 66% 29.81 in 10.0 mi WSW 10.4 mph - N/A   Clear
8:51 AM 73.9 °F 61.0 °F 64% 29.80 in 10.0 mi SW 8.1 mph - N/A   Clear
9:51 AM 75.0 °F 61.0 °F 62% 29.79 in 10.0 mi SW 8.1 mph 17.3 mph N/A   Clear
10:51 AM 75.0 °F 61.0 °F 62% 29.78 in 10.0 mi Variable 4.6 mph - N/A   Partly Cloudy
11:51 AM 75.9 °F 61.0 °F 60% 29.76 in 10.0 mi SW 5.8 mph - N/A   Overcast
12:51 PM 75.9 °F 62.1 °F 62% 29.75 in 10.0 mi SW 8.1 mph - N/A   Mostly Cloudy
1:51 PM 75.0 °F 62.1 °F 64% 29.74 in 10.0 mi SW 11.5 mph - 0.00 in Rain Light Rain
2:51 PM 75.9 °F 62.1 °F 62% 29.73 in 10.0 mi SW 9.2 mph 19.6 mph 0.00 in   Clear
3:51 PM 75.0 °F 62.1 °F 64% 29.72 in 10.0 mi South 13.8 mph 20.7 mph N/A   Mostly Cloudy
4:51 PM 75.0 °F 62.1 °F 64% 29.71 in 10.0 mi South 6.9 mph - N/A   Overcast
5:51 PM 73.9 °F 63.0 °F 68% 29.70 in 10.0 mi Variable 3.5 mph - N/A   Overcast
6:44 PM 70.0 °F 64.9 °F 84% 29.70 in 4.0 mi SSW 8.1 mph - 0.07 in Rain , Thunderstorm Rain
6:51 PM 70.0 °F 66.0 °F 87% 29.70 in 3.0 mi WSW 6.9 mph - 0.15 in Rain , Thunderstorm Light Thunderstorms and Rain
7:08 PM 68.0 °F 66.9 °F 96% 29.72 in 4.0 mi Calm Calm - 0.12 in Rain Rain
7:19 PM 68.0 °F 66.9 °F 96% 29.73 in 6.0 mi WNW 5.8 mph - 0.14 in Rain Light Rain
7:51 PM 66.9 °F 66.9 °F 100% 29.70 in 4.0 mi East 3.5 mph - 0.26 in Rain Rain
8:08 PM 66.9 °F 66.9 °F 100% 29.70 in 5.0 mi East 4.6 mph - 0.06 in Rain Rain
8:32 PM 66.9 °F 66.0 °F 97% 29.70 in 6.0 mi Calm Calm - 0.15 in Rain Rain
8:51 PM 66.0 °F 66.0 °F 100% 29.68 in 2.0 mi Calm Calm - 0.28 in Rain Heavy Rain
9:01 PM 66.0 °F 66.0 °F 100% 29.70 in 1.8 mi Calm Calm - 0.13 in Rain Heavy Rain
9:12 PM 66.0 °F 66.0 °F 100% 29.70 in 2.0 mi NW 13.8 mph 21.9 mph 0.25 in Rain Heavy Rain
9:32 PM 63.0 °F 61.0 °F 93% 29.71 in 6.0 mi North 8.1 mph 21.9 mph 0.45 in Rain Light Rain
9:43 PM 63.0 °F 60.1 °F 90% 29.71 in 10.0 mi Variable 3.5 mph - 0.46 in Rain Light Rain
9:51 PM 62.1 °F 60.1 °F 93% 29.71 in 10.0 mi West 6.9 mph - 0.46 in Rain Light Rain
10:51 PM 62.1 °F 60.1 °F 93% 29.71 in 10.0 mi East 5.8 mph - 0.00 in Rain Light Rain
11:51 PM 60.1 °F 59.0 °F 96% 29.71 in 10.0 mi SE 3.5 mph - 0.01 in   Partly Cloudy